Location: ??
(35.5052°N, 139.7262°E)
Time: 01:17:27
(UTC+00:00)

Cosmos 1932 - Pass Details

Date: 18 October 2021
Orbit: 943 x 987 km, 65.0° (Epoch: 01 December)

Event Time Altitude Azimuth Distance (km) Brightness Sun altitude
Rises 10:20:06 0° 341° (NNW) 3,615 7.8 -28.8°
Reaches altitude 10° 10:23:13 10° 356° (N) 2,671 6.9 -29.4°
Enters shadow 10:25:20 18° 13° (NNE) 2,168 6.3 -29.8°
